Houston Hull, TX

4:48 AM CST on January 18, 2018 (GMT -0600)
Sugar Land Municipal-Hull

Weather History for KSGR - April, 2014

Change the Weather History Date:

Saturday, April 12, 2014

  Actual Average Record
Temperature  
Mean Temperature 74 °F -  
Max Temperature 84 °F 77 °F 90 °F (1963)
Min Temperature 66 °F 58 °F 41 °F (1988)
Cooling Degree Days 9    
Growing Degree Days 24 (Base 50)    
Moisture  
Dew Point 65 °F    
Average Humidity 81    
Maximum Humidity 93    
Minimum Humidity 56    
Precipitation  
Precipitation 0.00 in - - ()
Sea Level Pressure  
Sea Level Pressure 29.99 in    
Wind  
Wind Speed 10 mph (SSE)    
Max Wind Speed 21 mph    
Max Gust Speed 26 mph    
Visibility 10 miles    
Events      
Averages and records for this station are not official NWS values.
T = Trace of Precipitation, MM = Missing Value Source: NWS Daily Summary

Daily Weather History Graph

Daily Weather History Graph

Search for Another Location

Airport or City:

Trip Planner

Search our weather history database for the weather conditions in past years. The results will help you decide how hot, cold, wet, or windy it might be!

Date:

Astronomy

Apr. 12, 2014 Rise Set
Actual Time 6:59 AM CDT 7:47 PM CDT
Civil Twilight 6:35 AM CDT 8:12 PM CDT
Nautical Twilight 6:06 AM CDT 8:40 PM CDT
Astronomical Twilight 5:37 AM CDT 9:10 PM CDT
Moon 5:36 PM CDT (4/12) 5:15 AM CDT (4/12)
Length of Visible Light 13h 36m
Length of Day
12h 48m
Waxing Gibbous, 93% of the Moon is Illuminated
Apr 12
Waxing Gibbous
Apr 15
Full
Apr 22
Last Quarter
Apr 29
New
May 6
First Quarter

Hourly Weather History & Observations

Time (CDT) Temp. Heat Index Dew Point Humidity Pressure Visibility Wind Dir Wind Speed Gust Speed Precip Events Conditions
12:53 AM 66.0 °F - 64.0 °F 93% 30.04 in 10.0 mi SSE 8.1 mph - N/A   Mostly Cloudy
1:53 AM 66.0 °F - 63.0 °F 90% 30.02 in 10.0 mi SSE 8.1 mph - N/A   Mostly Cloudy
2:53 AM 66.0 °F - 64.0 °F 93% 30.01 in 10.0 mi SSE 9.2 mph - N/A   Mostly Cloudy
3:44 AM 66.9 °F - 64.9 °F 93% 29.99 in 10.0 mi SSE 10.4 mph - N/A   Overcast
3:53 AM 66.9 °F - 64.0 °F 90% 30.00 in 10.0 mi SSE 8.1 mph - N/A   Overcast
4:27 AM 66.9 °F - 64.0 °F 90% 29.99 in 10.0 mi SSE 8.1 mph - N/A   Overcast
4:53 AM 66.9 °F - 64.9 °F 93% 30.00 in 10.0 mi SSE 6.9 mph - N/A   Overcast
5:01 AM 66.9 °F - 64.9 °F 93% 29.99 in 10.0 mi SSE 6.9 mph - N/A   Overcast
5:36 AM 66.9 °F - 64.9 °F 93% 29.99 in 10.0 mi SSE 6.9 mph - N/A   Overcast
5:53 AM 66.9 °F - 64.9 °F 93% 30.00 in 10.0 mi SSE 9.2 mph - N/A   Overcast
6:34 AM 66.9 °F - 64.9 °F 93% 29.99 in 10.0 mi SE 6.9 mph - N/A   Mostly Cloudy
6:53 AM 66.9 °F - 64.0 °F 90% 29.99 in 10.0 mi SE 8.1 mph - N/A   Mostly Cloudy
7:21 AM 66.9 °F - 64.9 °F 93% 29.99 in 10.0 mi SE 8.1 mph - N/A   Mostly Cloudy
7:29 AM 66.9 °F - 64.9 °F 93% 29.99 in 10.0 mi SSE 5.8 mph - N/A   Mostly Cloudy
7:53 AM 68.0 °F - 66.0 °F 93% 30.01 in 10.0 mi SSE 8.1 mph - N/A   Overcast
8:53 AM 70.0 °F - 66.9 °F 90% 30.03 in 10.0 mi SSE 11.5 mph - N/A   Overcast
9:36 AM 71.1 °F - 66.9 °F 87% 30.04 in 10.0 mi SSE 8.1 mph - N/A   Mostly Cloudy
9:53 AM 73.9 °F - 68.0 °F 82% 30.05 in 10.0 mi SSE 12.7 mph - N/A   Overcast
10:53 AM 79.0 °F - 66.0 °F 64% 30.05 in 10.0 mi SSE 15.0 mph - N/A   Mostly Cloudy
11:53 AM 80.1 °F 81.7 °F 64.0 °F 58% 30.05 in 10.0 mi South 15.0 mph 23.0 mph N/A   Scattered Clouds
12:53 PM 80.1 °F 81.7 °F 64.0 °F 58% 30.02 in 10.0 mi South 16.1 mph 21.9 mph N/A   Scattered Clouds
1:53 PM 81.0 °F 82.5 °F 64.0 °F 56% 29.99 in 10.0 mi SSE 18.4 mph - N/A   Mostly Cloudy
2:53 PM 82.0 °F 83.8 °F 64.9 °F 56% 29.97 in 10.0 mi South 16.1 mph 25.3 mph N/A   Mostly Cloudy
3:53 PM 80.1 °F 81.9 °F 64.9 °F 60% 29.95 in 10.0 mi SSE 15.0 mph - N/A   Mostly Cloudy
4:53 PM 79.0 °F - 64.9 °F 62% 29.94 in 10.0 mi SE 16.1 mph 25.3 mph N/A   Overcast
5:53 PM 77.0 °F - 63.0 °F 62% 29.92 in 10.0 mi SSE 20.7 mph 26.5 mph N/A   Mostly Cloudy
6:53 PM 73.9 °F - 63.0 °F 68% 29.93 in 10.0 mi SSE 19.6 mph 24.2 mph N/A   Partly Cloudy
7:53 PM 71.1 °F - 63.0 °F 75% 29.93 in 10.0 mi SSE 12.7 mph - N/A   Clear
8:53 PM 69.1 °F - 63.0 °F 81% 29.93 in 10.0 mi SSE 16.1 mph - N/A   Clear
9:48 PM 69.8 °F - 64.4 °F 83% 29.94 in 10.0 mi SSE 12.7 mph - N/A   Mostly Cloudy
9:53 PM 69.1 °F - 64.0 °F 84% 29.95 in 10.0 mi SSE 11.5 mph - N/A   Mostly Cloudy
10:53 PM 69.1 °F - 64.9 °F 87% 29.95 in 10.0 mi SSE 16.1 mph - N/A   Overcast
11:53 PM 69.1 °F - 64.9 °F 87% 29.93 in 10.0 mi SSE 13.8 mph - N/A   Overcast